Date Hour Ending, MW ,,,,,,,,,,,,,,,,,
11/01/2018 1:00,-36,,,,,,,,,,,,,,,,,
11/01/2018 2:00,-56,,,,,,,,,,,,,,,,,
11/01/2018 3:00,-14,,,,,,,,,,,,,,,,,
11/01/2018 4:00,-50,,,,,,,,,,,,,,,,,
11/01/2018 5:00,-59,,,,,,,,,,,,,,,,,
11/01/2018 6:00,-147,,,,,,,,,,,,,,,,,
11/01/2018 7:00,-158,,,,,,,,,,,,,,,,,
11/01/2018 8:00,-125,,,,,,,,,,,,,,,,,
11/01/2018 9:00,-107,,,,,,,,,,,,,,,,,
11/01/2018 10:00,-117,,,,,,,,,,,,,,,,,
11/01/2018 11:00,-132,,,,,,,,,,,,,,,,,
11/01/2018 12:00,-150,,,,,,,,,,,,,,,,,
11/01/2018 13:00,-158,,,,,,,,,,,,,,,,,
11/01/2018 14:00,-161,,,,,,,,,,,,,,,,,
11/01/2018 15:00,-155,,,,,,,,,,,,,,,,,
11/01/2018 16:00,-157,,,,,,,,,,,,,,,,,
11/01/2018 17:00,-138,,,,,,,,,,,,,,,,,
11/01/2018 18:00,-101,,,,,,,,,,,,,,,,,
11/01/2018 19:00,-108,,,,,,,,,,,,,,,,,
11/01/2018 20:00,-91,,,,,,,,,,,,,,,,,
11/01/2018 21:00,-90,,,,,,,,,,,,,,,,,
11/01/2018 22:00,-104,,,,,,,,,,,,,,,,,
11/01/2018 23:00,-118,,,,,,,,,,,,,,,,,
11/02/2018 0:00,-99,,,,,,,,,,,,,,,,,
11/02/2018 1:00,-86,,,,,,,,,,,,,,,,,
11/02/2018 2:00,-84,,,,,,,,,,,,,,,,,
11/02/2018 3:00,-84,,,,,,,,,,,,,,,,,
11/02/2018 4:00,-85,,,,,,,,,,,,,,,,,
11/02/2018 5:00,-85,,,,,,,,,,,,,,,,,
11/02/2018 6:00,-92,,,,,,,,,,,,,,,,,
11/02/2018 7:00,-108,,,,,,,,,,,,,,,,,
11/02/2018 8:00,-91,,,,,,,,,,,,,,,,,
11/02/2018 9:00,-72,,,,,,,,,,,,,,,,,
11/02/2018 10:00,-74,,,,,,,,,,,,,,,,,
11/02/2018 11:00,-78,,,,,,,,,,,,,,,,,
11/02/2018 12:00,-80,,,,,,,,,,,,,,,,,
11/02/2018 13:00,-86,,,,,,,,,,,,,,,,,
11/02/2018 14:00,-76,,,,,,,,,,,,,,,,,
11/02/2018 15:00,-73,,,,,,,,,,,,,,,,,
11/02/2018 16:00,-68,,,,,,,,,,,,,,,,,
11/02/2018 17:00,-75,,,,,,,,,,,,,,,,,
11/02/2018 18:00,-73,,,,,,,,,,,,,,,,,
11/02/2018 19:00,-64,,,,,,,,,,,,,,,,,
11/02/2018 20:00,-44,,,,,,,,,,,,,,,,,
11/02/2018 21:00,-41,,,,,,,,,,,,,,,,,
11/02/2018 22:00,-42,,,,,,,,,,,,,,,,,
11/02/2018 23:00,-37,,,,,,,,,,,,,,,,,
11/03/2018 0:00,3,,,,,,,,,,,,,,,,,
11/03/2018 1:00,62,,,,,,,,,,,,,,,,,
11/03/2018 2:00,11,,,,,,,,,,,,,,,,,
11/03/2018 3:00,11,,,,,,,,,,,,,,,,,
11/03/2018 4:00,10,,,,,,,,,,,,,,,,,
11/03/2018 5:00,5,,,,,,,,,,,,,,,,,
11/03/2018 6:00,9,,,,,,,,,,,,,,,,,
11/03/2018 7:00,16,,,,,,,,,,,,,,,,,
11/03/2018 8:00,-40,,,,,,,,,,,,,,,,,
11/03/2018 9:00,-103,,,,,,,,,,,,,,,,,
11/03/2018 10:00,-114,,,,,,,,,,,,,,,,,
11/03/2018 11:00,-116,,,,,,,,,,,,,,,,,
11/03/2018 12:00,-110,,,,,,,,,,,,,,,,,
11/03/2018 13:00,-105,,,,,,,,,,,,,,,,,
11/03/2018 14:00,-98,,,,,,,,,,,,,,,,,
11/03/2018 15:00,-104,,,,,,,,,,,,,,,,,
11/03/2018 16:00,-126,,,,,,,,,,,,,,,,,
11/03/2018 17:00,-114,,,,,,,,,,,,,,,,,
11/03/2018 18:00,-108,,,,,,,,,,,,,,,,,
11/03/2018 19:00,-110,,,,,,,,,,,,,,,,,
11/03/2018 20:00,-108,,,,,,,,,,,,,,,,,
11/03/2018 21:00,-61,,,,,,,,,,,,,,,,,
11/03/2018 22:00,-42,,,,,,,,,,,,,,,,,
11/03/2018 23:00,-37,,,,,,,,,,,,,,,,,
11/04/2018 0:00,0,,,,,,,,,,,,,,,,,
11/04/2018 1:00,0,,,,,,,,,,,,,,,,,
11/04/2018 2:00,-5,,,,,,,,,,,,,,,,,
11/04/2018 3:00,-5,,,,,,,,,,,,,,,,,
11/04/2018 4:00,-16,,,,,,,,,,,,,,,,,
11/04/2018 5:00,-23,,,,,,,,,,,,,,,,,
11/04/2018 6:00,-17,,,,,,,,,,,,,,,,,
11/04/2018 7:00,-29,,,,,,,,,,,,,,,,,
11/04/2018 8:00,-32,,,,,,,,,,,,,,,,,
11/04/2018 9:00,-80,,,,,,,,,,,,,,,,,
11/04/2018 10:00,-112,,,,,,,,,,,,,,,,,
11/04/2018 11:00,-155,,,,,,,,,,,,,,,,,
11/04/2018 12:00,-197,,,,,,,,,,,,,,,,,
11/04/2018 13:00,-193,,,,,,,,,,,,,,,,,
11/04/2018 14:00,-211,,,,,,,,,,,,,,,,,
11/04/2018 15:00,-188,,,,,,,,,,,,,,,,,
11/04/2018 16:00,-208,,,,,,,,,,,,,,,,,
11/04/2018 17:00,-163,,,,,,,,,,,,,,,,,
11/04/2018 18:00,-171,,,,,,,,,,,,,,,,,
11/04/2018 19:00,-196,,,,,,,,,,,,,,,,,
11/04/2018 20:00,-214,,,,,,,,,,,,,,,,,
11/04/2018 21:00,-230,,,,,,,,,,,,,,,,,
11/04/2018 22:00,-212,,,,,,,,,,,,,,,,,
11/04/2018 23:00,-179,,,,,,,,,,,,,,,,,
11/05/2018 0:00,-132,,,,,,,,,,,,,,,,,
11/05/2018 1:00,-151,,,,,,,,,,,,,,,,,
11/05/2018 2:00,-116,,,,,,,,,,,,,,,,,
11/05/2018 3:00,-207,,,,,,,,,,,,,,,,,
11/05/2018 4:00,-201,,,,,,,,,,,,,,,,,
11/05/2018 5:00,-206,,,,,,,,,,,,,,,,,
11/05/2018 6:00,-203,,,,,,,,,,,,,,,,,
11/05/2018 7:00,-198,,,,,,,,,,,,,,,,,
11/05/2018 8:00,-182,,,,,,,,,,,,,,,,,
11/05/2018 9:00,-194,,,,,,,,,,,,,,,,,
11/05/2018 10:00,-198,,,,,,,,,,,,,,,,,
11/05/2018 11:00,-205,,,,,,,,,,,,,,,,,
11/05/2018 12:00,-207,,,,,,,,,,,,,,,,,
11/05/2018 13:00,-205,,,,,,,,,,,,,,,,,
11/05/2018 14:00,-200,,,,,,,,,,,,,,,,,
11/05/2018 15:00,-179,,,,,,,,,,,,,,,,,
11/05/2018 16:00,-207,,,,,,,,,,,,,,,,,
11/05/2018 17:00,-199,,,,,,,,,,,,,,,,,
11/05/2018 18:00,-202,,,,,,,,,,,,,,,,,
11/05/2018 19:00,-193,,,,,,,,,,,,,,,,,
11/05/2018 20:00,-190,,,,,,,,,,,,,,,,,
11/05/2018 21:00,-196,,,,,,,,,,,,,,,,,
11/05/2018 22:00,-201,,,,,,,,,,,,,,,,,
11/05/2018 23:00,-144,,,,,,,,,,,,,,,,,
11/06/2018 0:00,-133,,,,,,,,,,,,,,,,,
11/06/2018 1:00,-61,,,,,,,,,,,,,,,,,
11/06/2018 2:00,-47,,,,,,,,,,,,,,,,,
11/06/2018 3:00,-44,,,,,,,,,,,,,,,,,
11/06/2018 4:00,-50,,,,,,,,,,,,,,,,,
11/06/2018 5:00,-48,,,,,,,,,,,,,,,,,
11/06/2018 6:00,-47,,,,,,,,,,,,,,,,,
11/06/2018 7:00,-47,,,,,,,,,,,,,,,,,
11/06/2018 8:00,-47,,,,,,,,,,,,,,,,,
11/06/2018 9:00,-113,,,,,,,,,,,,,,,,,
11/06/2018 10:00,-130,,,,,,,,,,,,,,,,,
11/06/2018 11:00,-125,,,,,,,,,,,,,,,,,
11/06/2018 12:00,-143,,,,,,,,,,,,,,,,,
11/06/2018 13:00,-80,,,,,,,,,,,,,,,,,
11/06/2018 14:00,-98,,,,,,,,,,,,,,,,,
11/06/2018 15:00,-81,,,,,,,,,,,,,,,,,
11/06/2018 16:00,-75,,,,,,,,,,,,,,,,,
11/06/2018 17:00,-72,,,,,,,,,,,,,,,,,
11/06/2018 18:00,-72,,,,,,,,,,,,,,,,,
11/06/2018 19:00,-99,,,,,,,,,,,,,,,,,
11/06/2018 20:00,-94,,,,,,,,,,,,,,,,,
11/06/2018 21:00,-101,,,,,,,,,,,,,,,,,
11/06/2018 22:00,-100,,,,,,,,,,,,,,,,,
11/06/2018 23:00,-131,,,,,,,,,,,,,,,,,
11/07/2018 0:00,-130,,,,,,,,,,,,,,,,,
11/07/2018 1:00,-96,,,,,,,,,,,,,,,,,
11/07/2018 2:00,-64,,,,,,,,,,,,,,,,,
11/07/2018 3:00,-18,,,,,,,,,,,,,,,,,
11/07/2018 4:00,-26,,,,,,,,,,,,,,,,,
11/07/2018 5:00,-22,,,,,,,,,,,,,,,,,
11/07/2018 6:00,-31,,,,,,,,,,,,,,,,,
11/07/2018 7:00,-66,,,,,,,,,,,,,,,,,
11/07/2018 8:00,-97,,,,,,,,,,,,,,,,,
11/07/2018 9:00,-145,,,,,,,,,,,,,,,,,
11/07/2018 10:00,-203,,,,,,,,,,,,,,,,,
11/07/2018 11:00,-200,,,,,,,,,,,,,,,,,
11/07/2018 12:00,-150,,,,,,,,,,,,,,,,,
11/07/2018 13:00,-173,,,,,,,,,,,,,,,,,
11/07/2018 14:00,-181,,,,,,,,,,,,,,,,,
11/07/2018 15:00,-219,,,,,,,,,,,,,,,,,
11/07/2018 16:00,-229,,,,,,,,,,,,,,,,,
11/07/2018 17:00,-225,,,,,,,,,,,,,,,,,
11/07/2018 18:00,-223,,,,,,,,,,,,,,,,,
11/07/2018 19:00,-212,,,,,,,,,,,,,,,,,
11/07/2018 20:00,-202,,,,,,,,,,,,,,,,,
11/07/2018 21:00,-214,,,,,,,,,,,,,,,,,
11/07/2018 22:00,-230,,,,,,,,,,,,,,,,,
11/07/2018 23:00,-239,,,,,,,,,,,,,,,,,
11/08/2018 0:00,-227,,,,,,,,,,,,,,,,,
11/08/2018 1:00,-213,,,,,,,,,,,,,,,,,
11/08/2018 2:00,-204,,,,,,,,,,,,,,,,,
11/08/2018 3:00,-179,,,,,,,,,,,,,,,,,
11/08/2018 4:00,-163,,,,,,,,,,,,,,,,,
11/08/2018 5:00,-176,,,,,,,,,,,,,,,,,
11/08/2018 6:00,-178,,,,,,,,,,,,,,,,,
11/08/2018 7:00,-206,,,,,,,,,,,,,,,,,
11/08/2018 8:00,-221,,,,,,,,,,,,,,,,,
11/08/2018 9:00,-234,,,,,,,,,,,,,,,,,
11/08/2018 10:00,-212,,,,,,,,,,,,,,,,,
11/08/2018 11:00,-209,,,,,,,,,,,,,,,,,
11/08/2018 12:00,-208,,,,,,,,,,,,,,,,,
11/08/2018 13:00,-212,,,,,,,,,,,,,,,,,
11/08/2018 14:00,-235,,,,,,,,,,,,,,,,,
11/08/2018 15:00,-237,,,,,,,,,,,,,,,,,
11/08/2018 16:00,-232,,,,,,,,,,,,,,,,,
11/08/2018 17:00,-235,,,,,,,,,,,,,,,,,
11/08/2018 18:00,-232,,,,,,,,,,,,,,,,,
11/08/2018 19:00,-218,,,,,,,,,,,,,,,,,
11/08/2018 20:00,-205,,,,,,,,,,,,,,,,,
11/08/2018 21:00,-221,,,,,,,,,,,,,,,,,
11/08/2018 22:00,-226,,,,,,,,,,,,,,,,,
11/08/2018 23:00,-229,,,,,,,,,,,,,,,,,
11/09/2018 0:00,-165,,,,,,,,,,,,,,,,,
11/09/2018 1:00,-70,,,,,,,,,,,,,,,,,
11/09/2018 2:00,-92,,,,,,,,,,,,,,,,,
11/09/2018 3:00,-51,,,,,,,,,,,,,,,,,
11/09/2018 4:00,-64,,,,,,,,,,,,,,,,,
11/09/2018 5:00,-61,,,,,,,,,,,,,,,,,
11/09/2018 6:00,-61,,,,,,,,,,,,,,,,,
11/09/2018 7:00,-53,,,,,,,,,,,,,,,,,
11/09/2018 8:00,-82,,,,,,,,,,,,,,,,,
11/09/2018 9:00,-170,,,,,,,,,,,,,,,,,
11/09/2018 10:00,-203,,,,,,,,,,,,,,,,,
11/09/2018 11:00,-211,,,,,,,,,,,,,,,,,
11/09/2018 12:00,-215,,,,,,,,,,,,,,,,,
11/09/2018 13:00,-205,,,,,,,,,,,,,,,,,
11/09/2018 14:00,-208,,,,,,,,,,,,,,,,,
11/09/2018 15:00,-204,,,,,,,,,,,,,,,,,
11/09/2018 16:00,-211,,,,,,,,,,,,,,,,,
11/09/2018 17:00,-215,,,,,,,,,,,,,,,,,
11/09/2018 18:00,-216,,,,,,,,,,,,,,,,,
11/09/2018 19:00,-203,,,,,,,,,,,,,,,,,
11/09/2018 20:00,-183,,,,,,,,,,,,,,,,,
11/09/2018 21:00,-174,,,,,,,,,,,,,,,,,
11/09/2018 22:00,-152,,,,,,,,,,,,,,,,,
11/09/2018 23:00,-111,,,,,,,,,,,,,,,,,
11/10/2018 0:00,-169,,,,,,,,,,,,,,,,,
11/10/2018 1:00,-90,,,,,,,,,,,,,,,,,
11/10/2018 2:00,-121,,,,,,,,,,,,,,,,,
11/10/2018 3:00,-124,,,,,,,,,,,,,,,,,
11/10/2018 4:00,-72,,,,,,,,,,,,,,,,,
11/10/2018 5:00,0,,,,,,,,,,,,,,,,,
11/10/2018 6:00,18,,,,,,,,,,,,,,,,,
11/10/2018 7:00,-2,,,,,,,,,,,,,,,,,
11/10/2018 8:00,-24,,,,,,,,,,,,,,,,,
11/10/2018 9:00,-145,,,,,,,,,,,,,,,,,
11/10/2018 10:00,-123,,,,,,,,,,,,,,,,,
11/10/2018 11:00,-125,,,,,,,,,,,,,,,,,
11/10/2018 12:00,-122,,,,,,,,,,,,,,,,,
11/10/2018 13:00,-128,,,,,,,,,,,,,,,,,
11/10/2018 14:00,-131,,,,,,,,,,,,,,,,,
11/10/2018 15:00,-130,,,,,,,,,,,,,,,,,
11/10/2018 16:00,-153,,,,,,,,,,,,,,,,,
11/10/2018 17:00,-148,,,,,,,,,,,,,,,,,
11/10/2018 18:00,-130,,,,,,,,,,,,,,,,,
11/10/2018 19:00,-108,,,,,,,,,,,,,,,,,
11/10/2018 20:00,-79,,,,,,,,,,,,,,,,,
11/10/2018 21:00,-104,,,,,,,,,,,,,,,,,
11/10/2018 22:00,-72,,,,,,,,,,,,,,,,,
11/10/2018 23:00,-99,,,,,,,,,,,,,,,,,
11/11/2018 0:00,-135,,,,,,,,,,,,,,,,,
11/11/2018 1:00,-45,,,,,,,,,,,,,,,,,
11/11/2018 2:00,-39,,,,,,,,,,,,,,,,,
11/11/2018 3:00,-48,,,,,,,,,,,,,,,,,
11/11/2018 4:00,-73,,,,,,,,,,,,,,,,,
11/11/2018 5:00,-77,,,,,,,,,,,,,,,,,
11/11/2018 6:00,-80,,,,,,,,,,,,,,,,,
11/11/2018 7:00,-75,,,,,,,,,,,,,,,,,
11/11/2018 8:00,-65,,,,,,,,,,,,,,,,,
11/11/2018 9:00,-70,,,,,,,,,,,,,,,,,
11/11/2018 10:00,-95,,,,,,,,,,,,,,,,,
11/11/2018 11:00,-109,,,,,,,,,,,,,,,,,
11/11/2018 12:00,-131,,,,,,,,,,,,,,,,,
11/11/2018 13:00,-98,,,,,,,,,,,,,,,,,
11/11/2018 14:00,-99,,,,,,,,,,,,,,,,,
11/11/2018 15:00,-97,,,,,,,,,,,,,,,,,
11/11/2018 16:00,-100,,,,,,,,,,,,,,,,,
11/11/2018 17:00,-107,,,,,,,,,,,,,,,,,
11/11/2018 18:00,-131,,,,,,,,,,,,,,,,,
11/11/2018 19:00,-168,,,,,,,,,,,,,,,,,
11/11/2018 20:00,-149,,,,,,,,,,,,,,,,,
11/11/2018 21:00,-154,,,,,,,,,,,,,,,,,
11/11/2018 22:00,-165,,,,,,,,,,,,,,,,,
11/11/2018 23:00,-161,,,,,,,,,,,,,,,,,
11/12/2018 0:00,-165,,,,,,,,,,,,,,,,,
11/12/2018 1:00,-183,,,,,,,,,,,,,,,,,
11/12/2018 2:00,-204,,,,,,,,,,,,,,,,,
11/12/2018 3:00,-225,,,,,,,,,,,,,,,,,
11/12/2018 4:00,-237,,,,,,,,,,,,,,,,,
11/12/2018 5:00,-206,,,,,,,,,,,,,,,,,
11/12/2018 6:00,-199,,,,,,,,,,,,,,,,,
11/12/2018 7:00,-196,,,,,,,,,,,,,,,,,
11/12/2018 8:00,-217,,,,,,,,,,,,,,,,,
11/12/2018 9:00,-227,,,,,,,,,,,,,,,,,
11/12/2018 10:00,-212,,,,,,,,,,,,,,,,,
11/12/2018 11:00,-210,,,,,,,,,,,,,,,,,
11/12/2018 12:00,-199,,,,,,,,,,,,,,,,,
11/12/2018 13:00,-195,,,,,,,,,,,,,,,,,
11/12/2018 14:00,-189,,,,,,,,,,,,,,,,,
11/12/2018 15:00,-189,,,,,,,,,,,,,,,,,
11/12/2018 16:00,-181,,,,,,,,,,,,,,,,,
11/12/2018 17:00,-196,,,,,,,,,,,,,,,,,
11/12/2018 18:00,-201,,,,,,,,,,,,,,,,,
11/12/2018 19:00,-194,,,,,,,,,,,,,,,,,
11/12/2018 20:00,-182,,,,,,,,,,,,,,,,,
11/12/2018 21:00,-188,,,,,,,,,,,,,,,,,
11/12/2018 22:00,-181,,,,,,,,,,,,,,,,,
11/12/2018 23:00,-195,,,,,,,,,,,,,,,,,
11/13/2018 0:00,-173,,,,,,,,,,,,,,,,,
11/13/2018 1:00,-105,,,,,,,,,,,,,,,,,
11/13/2018 2:00,-96,,,,,,,,,,,,,,,,,
11/13/2018 3:00,-102,,,,,,,,,,,,,,,,,
11/13/2018 4:00,-90,,,,,,,,,,,,,,,,,
11/13/2018 5:00,-155,,,,,,,,,,,,,,,,,
11/13/2018 6:00,-145,,,,,,,,,,,,,,,,,
11/13/2018 7:00,-189,,,,,,,,,,,,,,,,,
11/13/2018 8:00,-209,,,,,,,,,,,,,,,,,
11/13/2018 9:00,-204,,,,,,,,,,,,,,,,,
11/13/2018 10:00,-202,,,,,,,,,,,,,,,,,
11/13/2018 11:00,-195,,,,,,,,,,,,,,,,,
11/13/2018 12:00,-197,,,,,,,,,,,,,,,,,
11/13/2018 13:00,-202,,,,,,,,,,,,,,,,,
11/13/2018 14:00,-175,,,,,,,,,,,,,,,,,
11/13/2018 15:00,-172,,,,,,,,,,,,,,,,,
11/13/2018 16:00,-171,,,,,,,,,,,,,,,,,
11/13/2018 17:00,-176,,,,,,,,,,,,,,,,,
11/13/2018 18:00,-188,,,,,,,,,,,,,,,,,
11/13/2018 19:00,-194,,,,,,,,,,,,,,,,,
11/13/2018 20:00,-190,,,,,,,,,,,,,,,,,
11/13/2018 21:00,-185,,,,,,,,,,,,,,,,,
11/13/2018 22:00,-198,,,,,,,,,,,,,,,,,
11/13/2018 23:00,-199,,,,,,,,,,,,,,,,,
11/14/2018 0:00,-158,,,,,,,,,,,,,,,,,
11/14/2018 1:00,-119,,,,,,,,,,,,,,,,,
11/14/2018 2:00,-63,,,,,,,,,,,,,,,,,
11/14/2018 3:00,-45,,,,,,,,,,,,,,,,,
11/14/2018 4:00,-43,,,,,,,,,,,,,,,,,
11/14/2018 5:00,-73,,,,,,,,,,,,,,,,,
11/14/2018 6:00,-39,,,,,,,,,,,,,,,,,
11/14/2018 7:00,-46,,,,,,,,,,,,,,,,,
11/14/2018 8:00,-100,,,,,,,,,,,,,,,,,
11/14/2018 9:00,-145,,,,,,,,,,,,,,,,,
11/14/2018 10:00,-149,,,,,,,,,,,,,,,,,
11/14/2018 11:00,-157,,,,,,,,,,,,,,,,,
11/14/2018 12:00,-157,,,,,,,,,,,,,,,,,
11/14/2018 13:00,-161,,,,,,,,,,,,,,,,,
11/14/2018 14:00,-164,,,,,,,,,,,,,,,,,
11/14/2018 15:00,-99,,,,,,,,,,,,,,,,,
11/14/2018 16:00,-103,,,,,,,,,,,,,,,,,
11/14/2018 17:00,-105,,,,,,,,,,,,,,,,,
11/14/2018 18:00,-159,,,,,,,,,,,,,,,,,
11/14/2018 19:00,-154,,,,,,,,,,,,,,,,,
11/14/2018 20:00,-160,,,,,,,,,,,,,,,,,
11/14/2018 21:00,-163,,,,,,,,,,,,,,,,,
11/14/2018 22:00,-159,,,,,,,,,,,,,,,,,
11/14/2018 23:00,-147,,,,,,,,,,,,,,,,,
11/15/2018 0:00,-93,,,,,,,,,,,,,,,,,
11/15/2018 1:00,-41,,,,,,,,,,,,,,,,,
11/15/2018 2:00,-12,,,,,,,,,,,,,,,,,
11/15/2018 3:00,-2,,,,,,,,,,,,,,,,,
11/15/2018 4:00,5,,,,,,,,,,,,,,,,,
11/15/2018 5:00,4,,,,,,,,,,,,,,,,,
11/15/2018 6:00,7,,,,,,,,,,,,,,,,,
11/15/2018 7:00,-47,,,,,,,,,,,,,,,,,
11/15/2018 8:00,-124,,,,,,,,,,,,,,,,,
11/15/2018 9:00,-168,,,,,,,,,,,,,,,,,
11/15/2018 10:00,-198,,,,,,,,,,,,,,,,,
11/15/2018 11:00,-201,,,,,,,,,,,,,,,,,
11/15/2018 12:00,-199,,,,,,,,,,,,,,,,,
11/15/2018 13:00,-94,,,,,,,,,,,,,,,,,
11/15/2018 14:00,-193,,,,,,,,,,,,,,,,,
11/15/2018 15:00,-190,,,,,,,,,,,,,,,,,
11/15/2018 16:00,-220,,,,,,,,,,,,,,,,,
11/15/2018 17:00,-193,,,,,,,,,,,,,,,,,
11/15/2018 18:00,-204,,,,,,,,,,,,,,,,,
11/15/2018 19:00,-196,,,,,,,,,,,,,,,,,
11/15/2018 20:00,-192,,,,,,,,,,,,,,,,,
11/15/2018 21:00,-195,,,,,,,,,,,,,,,,,
11/15/2018 22:00,-189,,,,,,,,,,,,,,,,,
11/15/2018 23:00,-162,,,,,,,,,,,,,,,,,
11/16/2018 0:00,-140,,,,,,,,,,,,,,,,,
11/16/2018 1:00,-78,,,,,,,,,,,,,,,,,
11/16/2018 2:00,-9,,,,,,,,,,,,,,,,,
11/16/2018 3:00,4,,,,,,,,,,,,,,,,,
11/16/2018 4:00,-25,,,,,,,,,,,,,,,,,
11/16/2018 5:00,-19,,,,,,,,,,,,,,,,,
11/16/2018 6:00,-3,,,,,,,,,,,,,,,,,
11/16/2018 7:00,-59,,,,,,,,,,,,,,,,,
11/16/2018 8:00,-102,,,,,,,,,,,,,,,,,
11/16/2018 9:00,-159,,,,,,,,,,,,,,,,,
11/16/2018 10:00,-163,,,,,,,,,,,,,,,,,
11/16/2018 11:00,-170,,,,,,,,,,,,,,,,,
11/16/2018 12:00,-123,,,,,,,,,,,,,,,,,
11/16/2018 13:00,-88,,,,,,,,,,,,,,,,,
11/16/2018 14:00,-108,,,,,,,,,,,,,,,,,
11/16/2018 15:00,-93,,,,,,,,,,,,,,,,,
11/16/2018 16:00,-90,,,,,,,,,,,,,,,,,
11/16/2018 17:00,-96,,,,,,,,,,,,,,,,,
11/16/2018 18:00,-109,,,,,,,,,,,,,,,,,
11/16/2018 19:00,-99,,,,,,,,,,,,,,,,,
11/16/2018 20:00,-41,,,,,,,,,,,,,,,,,
11/16/2018 21:00,-10,,,,,,,,,,,,,,,,,
11/16/2018 22:00,-95,,,,,,,,,,,,,,,,,
11/16/2018 23:00,-97,,,,,,,,,,,,,,,,,
11/17/2018 0:00,-94,,,,,,,,,,,,,,,,,
11/17/2018 1:00,-32,,,,,,,,,,,,,,,,,
11/17/2018 2:00,14,,,,,,,,,,,,,,,,,
11/17/2018 3:00,27,,,,,,,,,,,,,,,,,
11/17/2018 4:00,-27,,,,,,,,,,,,,,,,,
11/17/2018 5:00,-29,,,,,,,,,,,,,,,,,
11/17/2018 6:00,-66,,,,,,,,,,,,,,,,,
11/17/2018 7:00,-92,,,,,,,,,,,,,,,,,
11/17/2018 8:00,-79,,,,,,,,,,,,,,,,,
11/17/2018 9:00,-122,,,,,,,,,,,,,,,,,
11/17/2018 10:00,-151,,,,,,,,,,,,,,,,,
11/17/2018 11:00,-97,,,,,,,,,,,,,,,,,
11/17/2018 12:00,-98,,,,,,,,,,,,,,,,,
11/17/2018 13:00,-104,,,,,,,,,,,,,,,,,
11/17/2018 14:00,-105,,,,,,,,,,,,,,,,,
11/17/2018 15:00,-91,,,,,,,,,,,,,,,,,
11/17/2018 16:00,-96,,,,,,,,,,,,,,,,,
11/17/2018 17:00,-105,,,,,,,,,,,,,,,,,
11/17/2018 18:00,-109,,,,,,,,,,,,,,,,,
11/17/2018 19:00,-109,,,,,,,,,,,,,,,,,
11/17/2018 20:00,-109,,,,,,,,,,,,,,,,,
11/17/2018 21:00,-105,,,,,,,,,,,,,,,,,
11/17/2018 22:00,-82,,,,,,,,,,,,,,,,,
11/17/2018 23:00,-70,,,,,,,,,,,,,,,,,
11/18/2018 0:00,-54,,,,,,,,,,,,,,,,,
11/18/2018 1:00,-8,,,,,,,,,,,,,,,,,
11/18/2018 2:00,4,,,,,,,,,,,,,,,,,
11/18/2018 3:00,45,,,,,,,,,,,,,,,,,
11/18/2018 4:00,59,,,,,,,,,,,,,,,,,
11/18/2018 5:00,54,,,,,,,,,,,,,,,,,
11/18/2018 6:00,48,,,,,,,,,,,,,,,,,
11/18/2018 7:00,59,,,,,,,,,,,,,,,,,
11/18/2018 8:00,-12,,,,,,,,,,,,,,,,,
11/18/2018 9:00,-107,,,,,,,,,,,,,,,,,
11/18/2018 10:00,-106,,,,,,,,,,,,,,,,,
11/18/2018 11:00,-97,,,,,,,,,,,,,,,,,
11/18/2018 12:00,-120,,,,,,,,,,,,,,,,,
11/18/2018 13:00,-140,,,,,,,,,,,,,,,,,
11/18/2018 14:00,-168,,,,,,,,,,,,,,,,,
11/18/2018 15:00,-173,,,,,,,,,,,,,,,,,
11/18/2018 16:00,-162,,,,,,,,,,,,,,,,,
11/18/2018 17:00,-170,,,,,,,,,,,,,,,,,
11/18/2018 18:00,-173,,,,,,,,,,,,,,,,,
11/18/2018 19:00,-146,,,,,,,,,,,,,,,,,
11/18/2018 20:00,-124,,,,,,,,,,,,,,,,,
11/18/2018 21:00,-127,,,,,,,,,,,,,,,,,
11/18/2018 22:00,-119,,,,,,,,,,,,,,,,,
11/18/2018 23:00,-109,,,,,,,,,,,,,,,,,
11/19/2018 0:00,-118,,,,,,,,,,,,,,,,,
11/19/2018 1:00,-62,,,,,,,,,,,,,,,,,
11/19/2018 2:00,-81,,,,,,,,,,,,,,,,,
11/19/2018 3:00,-79,,,,,,,,,,,,,,,,,
11/19/2018 4:00,-34,,,,,,,,,,,,,,,,,
11/19/2018 5:00,-28,,,,,,,,,,,,,,,,,
11/19/2018 6:00,-17,,,,,,,,,,,,,,,,,
11/19/2018 7:00,-35,,,,,,,,,,,,,,,,,
11/19/2018 8:00,-44,,,,,,,,,,,,,,,,,
11/19/2018 9:00,-115,,,,,,,,,,,,,,,,,
11/19/2018 10:00,-136,,,,,,,,,,,,,,,,,
11/19/2018 11:00,-130,,,,,,,,,,,,,,,,,
11/19/2018 12:00,-123,,,,,,,,,,,,,,,,,
11/19/2018 13:00,-115,,,,,,,,,,,,,,,,,
11/19/2018 14:00,-104,,,,,,,,,,,,,,,,,
11/19/2018 15:00,-91,,,,,,,,,,,,,,,,,
11/19/2018 16:00,-105,,,,,,,,,,,,,,,,,
11/19/2018 17:00,-113,,,,,,,,,,,,,,,,,
11/19/2018 18:00,-174,,,,,,,,,,,,,,,,,
11/19/2018 19:00,-148,,,,,,,,,,,,,,,,,
11/19/2018 20:00,-162,,,,,,,,,,,,,,,,,
11/19/2018 21:00,-183,,,,,,,,,,,,,,,,,
11/19/2018 22:00,-128,,,,,,,,,,,,,,,,,
11/19/2018 23:00,-81,,,,,,,,,,,,,,,,,
11/20/2018 0:00,-14,,,,,,,,,,,,,,,,,
11/20/2018 1:00,26,,,,,,,,,,,,,,,,,
11/20/2018 2:00,33,,,,,,,,,,,,,,,,,
11/20/2018 3:00,32,,,,,,,,,,,,,,,,,
11/20/2018 4:00,22,,,,,,,,,,,,,,,,,
11/20/2018 5:00,26,,,,,,,,,,,,,,,,,
11/20/2018 6:00,-6,,,,,,,,,,,,,,,,,
11/20/2018 7:00,-46,,,,,,,,,,,,,,,,,
11/20/2018 8:00,-74,,,,,,,,,,,,,,,,,
11/20/2018 9:00,-161,,,,,,,,,,,,,,,,,
11/20/2018 10:00,-190,,,,,,,,,,,,,,,,,
11/20/2018 11:00,-243,,,,,,,,,,,,,,,,,
11/20/2018 12:00,-242,,,,,,,,,,,,,,,,,
11/20/2018 13:00,-252,,,,,,,,,,,,,,,,,
11/20/2018 14:00,-239,,,,,,,,,,,,,,,,,
11/20/2018 15:00,-174,,,,,,,,,,,,,,,,,
11/20/2018 16:00,-137,,,,,,,,,,,,,,,,,
11/20/2018 17:00,-142,,,,,,,,,,,,,,,,,
11/20/2018 18:00,-183,,,,,,,,,,,,,,,,,
11/20/2018 19:00,-207,,,,,,,,,,,,,,,,,
11/20/2018 20:00,-203,,,,,,,,,,,,,,,,,
11/20/2018 21:00,-212,,,,,,,,,,,,,,,,,
11/20/2018 22:00,-200,,,,,,,,,,,,,,,,,
11/20/2018 23:00,-182,,,,,,,,,,,,,,,,,
11/21/2018 0:00,-145,,,,,,,,,,,,,,,,,
11/21/2018 1:00,-110,,,,,,,,,,,,,,,,,
11/21/2018 2:00,-136,,,,,,,,,,,,,,,,,
11/21/2018 3:00,-137,,,,,,,,,,,,,,,,,
11/21/2018 4:00,-106,,,,,,,,,,,,,,,,,
11/21/2018 5:00,-85,,,,,,,,,,,,,,,,,
11/21/2018 6:00,-86,,,,,,,,,,,,,,,,,
11/21/2018 7:00,-119,,,,,,,,,,,,,,,,,
11/21/2018 8:00,-192,,,,,,,,,,,,,,,,,
11/21/2018 9:00,-185,,,,,,,,,,,,,,,,,
11/21/2018 10:00,-257,,,,,,,,,,,,,,,,,
11/21/2018 11:00,-251,,,,,,,,,,,,,,,,,
11/21/2018 12:00,-212,,,,,,,,,,,,,,,,,
11/21/2018 13:00,-197,,,,,,,,,,,,,,,,,
11/21/2018 14:00,-233,,,,,,,,,,,,,,,,,
11/21/2018 15:00,-228,,,,,,,,,,,,,,,,,
11/21/2018 16:00,-217,,,,,,,,,,,,,,,,,
11/21/2018 17:00,-233,,,,,,,,,,,,,,,,,
11/21/2018 18:00,-203,,,,,,,,,,,,,,,,,
11/21/2018 19:00,-152,,,,,,,,,,,,,,,,,
11/21/2018 20:00,-172,,,,,,,,,,,,,,,,,
11/21/2018 21:00,-212,,,,,,,,,,,,,,,,,
11/21/2018 22:00,-210,,,,,,,,,,,,,,,,,
11/21/2018 23:00,-154,,,,,,,,,,,,,,,,,
11/22/2018 0:00,-85,,,,,,,,,,,,,,,,,
11/22/2018 1:00,-8,,,,,,,,,,,,,,,,,
11/22/2018 2:00,7,,,,,,,,,,,,,,,,,
11/22/2018 3:00,53,,,,,,,,,,,,,,,,,
11/22/2018 4:00,67,,,,,,,,,,,,,,,,,
11/22/2018 5:00,62,,,,,,,,,,,,,,,,,
11/22/2018 6:00,58,,,,,,,,,,,,,,,,,
11/22/2018 7:00,40,,,,,,,,,,,,,,,,,
11/22/2018 8:00,-9,,,,,,,,,,,,,,,,,
11/22/2018 9:00,-62,,,,,,,,,,,,,,,,,
11/22/2018 10:00,-98,,,,,,,,,,,,,,,,,
11/22/2018 11:00,-93,,,,,,,,,,,,,,,,,
11/22/2018 12:00,-93,,,,,,,,,,,,,,,,,
11/22/2018 13:00,-100,,,,,,,,,,,,,,,,,
11/22/2018 14:00,-102,,,,,,,,,,,,,,,,,
11/22/2018 15:00,-100,,,,,,,,,,,,,,,,,
11/22/2018 16:00,-100,,,,,,,,,,,,,,,,,
11/22/2018 17:00,-99,,,,,,,,,,,,,,,,,
11/22/2018 18:00,-101,,,,,,,,,,,,,,,,,
11/22/2018 19:00,-85,,,,,,,,,,,,,,,,,
11/22/2018 20:00,-96,,,,,,,,,,,,,,,,,
11/22/2018 21:00,-109,,,,,,,,,,,,,,,,,
11/22/2018 22:00,-95,,,,,,,,,,,,,,,,,
11/22/2018 23:00,-82,,,,,,,,,,,,,,,,,
11/23/2018 0:00,-49,,,,,,,,,,,,,,,,,
11/23/2018 1:00,-1,,,,,,,,,,,,,,,,,
11/23/2018 2:00,7,,,,,,,,,,,,,,,,,
11/23/2018 3:00,47,,,,,,,,,,,,,,,,,
11/23/2018 4:00,77,,,,,,,,,,,,,,,,,
11/23/2018 5:00,74,,,,,,,,,,,,,,,,,
11/23/2018 6:00,56,,,,,,,,,,,,,,,,,
11/23/2018 7:00,47,,,,,,,,,,,,,,,,,
11/23/2018 8:00,10,,,,,,,,,,,,,,,,,
11/23/2018 9:00,-80,,,,,,,,,,,,,,,,,
11/23/2018 10:00,-97,,,,,,,,,,,,,,,,,
11/23/2018 11:00,-101,,,,,,,,,,,,,,,,,
11/23/2018 12:00,-105,,,,,,,,,,,,,,,,,
11/23/2018 13:00,-109,,,,,,,,,,,,,,,,,
11/23/2018 14:00,-105,,,,,,,,,,,,,,,,,
11/23/2018 15:00,-103,,,,,,,,,,,,,,,,,
11/23/2018 16:00,-104,,,,,,,,,,,,,,,,,
11/23/2018 17:00,-108,,,,,,,,,,,,,,,,,
11/23/2018 18:00,-167,,,,,,,,,,,,,,,,,
11/23/2018 19:00,-213,,,,,,,,,,,,,,,,,
11/23/2018 20:00,-216,,,,,,,,,,,,,,,,,
11/23/2018 21:00,-210,,,,,,,,,,,,,,,,,
11/23/2018 22:00,-200,,,,,,,,,,,,,,,,,
11/23/2018 23:00,-141,,,,,,,,,,,,,,,,,
11/24/2018 0:00,-97,,,,,,,,,,,,,,,,,
11/24/2018 1:00,-120,,,,,,,,,,,,,,,,,
11/24/2018 2:00,-81,,,,,,,,,,,,,,,,,
11/24/2018 3:00,-131,,,,,,,,,,,,,,,,,
11/24/2018 4:00,-130,,,,,,,,,,,,,,,,,
11/24/2018 5:00,-117,,,,,,,,,,,,,,,,,
11/24/2018 6:00,-124,,,,,,,,,,,,,,,,,
11/24/2018 7:00,-125,,,,,,,,,,,,,,,,,
11/24/2018 8:00,-206,,,,,,,,,,,,,,,,,
11/24/2018 9:00,-246,,,,,,,,,,,,,,,,,
11/24/2018 10:00,-240,,,,,,,,,,,,,,,,,
11/24/2018 11:00,-189,,,,,,,,,,,,,,,,,
11/24/2018 12:00,-142,,,,,,,,,,,,,,,,,
11/24/2018 13:00,-101,,,,,,,,,,,,,,,,,
11/24/2018 14:00,-134,,,,,,,,,,,,,,,,,
11/24/2018 15:00,-131,,,,,,,,,,,,,,,,,
11/24/2018 16:00,-157,,,,,,,,,,,,,,,,,
11/24/2018 17:00,-150,,,,,,,,,,,,,,,,,
11/24/2018 18:00,-147,,,,,,,,,,,,,,,,,
11/24/2018 19:00,-151,,,,,,,,,,,,,,,,,
11/24/2018 20:00,-144,,,,,,,,,,,,,,,,,
11/24/2018 21:00,-143,,,,,,,,,,,,,,,,,
11/24/2018 22:00,-142,,,,,,,,,,,,,,,,,
11/24/2018 23:00,-156,,,,,,,,,,,,,,,,,
11/25/2018 0:00,-160,,,,,,,,,,,,,,,,,
11/25/2018 1:00,-129,,,,,,,,,,,,,,,,,
11/25/2018 2:00,-64,,,,,,,,,,,,,,,,,
11/25/2018 3:00,-32,,,,,,,,,,,,,,,,,
11/25/2018 4:00,6,,,,,,,,,,,,,,,,,
11/25/2018 5:00,15,,,,,,,,,,,,,,,,,
11/25/2018 6:00,14,,,,,,,,,,,,,,,,,
11/25/2018 7:00,32,,,,,,,,,,,,,,,,,
11/25/2018 8:00,-1,,,,,,,,,,,,,,,,,
11/25/2018 9:00,-73,,,,,,,,,,,,,,,,,
11/25/2018 10:00,-115,,,,,,,,,,,,,,,,,
11/25/2018 11:00,-94,,,,,,,,,,,,,,,,,
11/25/2018 12:00,-128,,,,,,,,,,,,,,,,,
11/25/2018 13:00,-183,,,,,,,,,,,,,,,,,
11/25/2018 14:00,-140,,,,,,,,,,,,,,,,,
11/25/2018 15:00,-158,,,,,,,,,,,,,,,,,
11/25/2018 16:00,-152,,,,,,,,,,,,,,,,,
11/25/2018 17:00,-153,,,,,,,,,,,,,,,,,
11/25/2018 18:00,-155,,,,,,,,,,,,,,,,,
11/25/2018 19:00,-113,,,,,,,,,,,,,,,,,
11/25/2018 20:00,-102,,,,,,,,,,,,,,,,,
11/25/2018 21:00,-123,,,,,,,,,,,,,,,,,
11/25/2018 22:00,-129,,,,,,,,,,,,,,,,,
11/25/2018 23:00,-95,,,,,,,,,,,,,,,,,
11/26/2018 0:00,-96,,,,,,,,,,,,,,,,,
11/26/2018 1:00,-10,,,,,,,,,,,,,,,,,
11/26/2018 2:00,1,,,,,,,,,,,,,,,,,
11/26/2018 3:00,0,,,,,,,,,,,,,,,,,
11/26/2018 4:00,-1,,,,,,,,,,,,,,,,,
11/26/2018 5:00,0,,,,,,,,,,,,,,,,,
11/26/2018 6:00,-32,,,,,,,,,,,,,,,,,
11/26/2018 7:00,-50,,,,,,,,,,,,,,,,,
11/26/2018 8:00,-45,,,,,,,,,,,,,,,,,
11/26/2018 9:00,-114,,,,,,,,,,,,,,,,,
11/26/2018 10:00,-186,,,,,,,,,,,,,,,,,
11/26/2018 11:00,-194,,,,,,,,,,,,,,,,,
11/26/2018 12:00,-125,,,,,,,,,,,,,,,,,
11/26/2018 13:00,-122,,,,,,,,,,,,,,,,,